User: anonymous   Login
Location: Albany
(35.0000°S, 118.0000°E)
Time: 16:26:06
(UTC-05:00)
Language:

Cosmos 1758 Rocket - Orbit

View from above orbital plane
View from above orbital plane
View from above satellite
View from above satellite

Ground track
Ground track

The orbit data is extracted from the following two-line orbital elements,

1 16792U 86046B   16044.24093943  .00000267  00000-0  29647-4 0  9995
2 16792  82.4843 303.3828 0025791 105.2585   0.6329 14.83034657602260
Epoch (UTC): 13 February 2016 05:46:57
Eccentricity: 0.0025791
inclination: 82.4843°
perigee height: 602 km
apogee height: 638 km
right ascension of ascending node: 303.3828°
argument of perigee: 105.2585°
revolutions per day: 14.83034657
mean anomaly at epoch: 0.6329°
orbit number at epoch: 60226

The dashed part of the orbit path shows where the satellite is in the earth's shadow,  

DLR